Location: Recife
(8.0585°S, 34.8848°W)
Time: 09:07:46
(UTC-03:00)

Altair - Pass Details

Date: 21 April 2026
Orbit: 1501 x 1682 km, 47.2° (Epoch: 11 May)

Event Time Altitude Azimuth Distance (km) Brightness Sun altitude
Rises 18:17:39 0° 349° (N) 4,705 10.3 -16.1°
Reaches altitude 10° 18:21:43 10° 4° (N) 3,697 9.6 -17.1°
Maximum altitude 18:28:22 22° 51° (NE) 2,851 8.5 -18.7°
Enters shadow 18:30:24 20° 68° (ENE) 2,934 8.5 -19.2°
